[[{"header":{"parameterUnit":"m.s-1","parameterCategory":1,"la1":30.2991,"la2":30.254,"lo1":-89.0895,"lo2":-89.0444,"dy":0.0017,"dx":0.0017,"nx":28,"ny":28,"refTime":"2023-07-19T03:00:00:Z","depth":0,"parameterNumber":2,"parameterNumberName":"U-component_of_WINDS"},"data":[0,0,0,0,0,0,0,0,0,0,0,0,0,0,0,0,0,0,0,0,0,0,0,0,0,0,0,0,0,0,0,0,0,0,0,0,0,0,0,0,0,0,0,0,0,0,0,0,0,0,0,0,0,0,0,0,0,0,2.3984,2.3983,0,2.3934,2.3933,2.3933,2.3829,2.3827,2.3825,2.3823,2.3774,2.3775,2.3775,0,0,0,0,0,0,0,0,0,0,0,0,0,2.3989,2.399,2.3984,2.3983,2.3982,2.3934,2.3933,2.3932,2.383,2.3827,2.3825,2.3822,2.3774,2.3775,2.3775,0,0,0,0,0,0,0,0,0,0,0,0,0,2.3968,2.399,2.3984,2.3925,2.392,2.3934,2.3933,2.3932,2.383,2.3827,2.3824,2.3821,2.3774,2.3774,2.3775,2.3843,0,0,2.3778,2.3779,0,0,0,0,0,0,0,0,2.3969,2.3968,2.3935,2.3929,2.3923,2.3885,2.3917,2.3902,2.3831,2.3864,2.3823,2.382,2.3813,2.3811,2.3808,2.3841,2.3839,2.3778,2.3779,2.3779,2.3779,0,0,0,0,0,0,0,2.3971,2.3969,2.3964,2.3934,2.3927,2.3901,2.3895,2.3914,2.3857,2.3861,2.3854,2.3849,2.381,2.3808,2.3806,2.3838,2.3778,2.3779,2.378,2.378,2.3919,2.3922,0,0,0,0,0,0,2.3981,2.3971,2.3965,2.3962,2.3939,2.3904,2.3896,2.39,2.3856,2.3847,2.3852,2.3844,2.3808,2.3805,2.3804,2.3877,2.3779,2.378,2.3781,2.3915,2.3919,2.3923,0,0,0,0,0,0,2.3981,2.3981,2.3967,2.3965,2.3961,2.3907,2.3912,2.3901,2.3898,2.3849,2.3839,2.386,2.3805,2.3803,2.3833,2.3874,2.378,2.3781,2.3912,2.3917,2.3921,2.4026,0,0,0,0,0,0,2.3982,2.3982,2.4008,2.3966,2.3962,2.3998,2.3914,2.3902,2.39,2.389,2.3854,2.3845,2.3803,2.3832,2.3834,2.3874,2.3782,2.3908,2.3914,2.3919,2.4018,2.4033,2.4046,0,0,0,0,0,2.3983,2.4041,2.401,2.401,2.3992,2.4,2.3998,2.3947,2.3904,2.3929,2.3896,2.3847,2.387,2.3836,2.3837,2.3878,2.3905,2.3912,2.3919,2.4012,2.403,2.4046,0,0,0,0,0,0,2.409,2.4034,2.3999,2.4046,2.4028,2.3983,2.4013,2.3969,2.3963,2.3954,2.3892,2.3885,2.3922,2.3903,2.3867,2.3939,2.3879,2.3887,2.3949,2.3967,2.398,2.3983,2.3783,0,0,0,0,0,2.4119,2.413,2.4081,2.4126,2.4119,2.4068,2.4069,2.4031,2.4011,2.4003,2.3973,2.3956,2.3958,2.3962,2.3962,2.4016,2.4004,2.4044,2.4058,2.407,2.4076,2.4099,2.4115,2.3946,2.3946,2.3946,0,0,2.418,2.415,2.4161,2.4147,2.4129,2.4141,2.4062,2.4079,2.4087,2.4006,2.4031,2.4009,2.3985,2.4026,2.4042,2.4011,2.4121,2.4079,2.4088,2.4088,2.4108,2.4124,2.4138,2.3951,2.395,2.3949,0,0,2.4294,2.4275,2.4308,2.4291,2.4264,2.4229,2.4237,2.4198,2.4179,2.4203,2.4142,2.415,2.4158,2.4141,2.4135,2.424,2.4193,2.4242,2.4315,2.4338,2.4351,2.4363,2.4397,2.441,2.425,2.425,2.425,0,2.4373,2.4388,2.4332,2.4351,2.4345,2.4271,2.4304,2.429,2.4266,2.4263,2.4229,2.4233,2.4212,2.4246,2.4272,2.427,2.4275,2.4245,2.4354,2.4365,2.4375,2.4406,2.442,2.4256,2.4255,2.4254,2.4254,0,2.4483,2.4495,2.4525,2.45,2.4499,2.4525,2.4472,2.4477,2.4438,2.4406,2.443,2.4402,2.4393,2.4399,2.4363,2.4427,2.4408,2.4365,2.4303,2.4397,2.4426,2.4438,2.4264,2.4262,2.426,2.4259,0,0,2.4665,2.4607,2.4619,2.4605,2.4569,2.4576,2.4598,2.4588,2.4592,2.4577,2.4592,2.4598,2.4557,2.4549,2.451,2.4531,2.4612,2.4484,2.4482,2.4506,2.4677,2.4707,2.4723,2.4581,2.4583,2.4585,2.4677,0,2.4769,2.4802,2.4751,2.4796,2.4804,2.4732,2.4751,2.473,2.4701,2.4703,2.467,2.4674,2.4621,2.4615,2.4632,2.4598,2.4645,2.4591,2.4592,2.4593,2.4598,2.4738,2.4772,2.4861,2.4689,2.4691,2.4692,0,2.4896,2.4884,2.4929,2.4886,2.4888,2.4905,2.489,2.4894,2.4868,2.4844,2.4834,2.4787,2.4804,2.4746,2.4767,2.4732,2.4729,2.4713,2.4715,2.4711,2.4647,2.4735,2.4888,2.4901,2.471,2.4709,2.4707,0,2.5019,2.5016,2.504,2.5032,2.4984,2.4997,2.4977,2.4948,2.4945,2.4932,2.4928,2.4918,2.4912,2.4905,2.4856,2.4819,2.4882,2.4821,2.4861,2.4863,2.4876,2.4876,2.5028,2.488,2.488,2.488,2.4879,0,2.514,2.5169,2.5095,2.511,2.514,2.5081,2.5112,2.5085,2.506,2.5067,2.5007,2.5015,2.4951,2.4953,2.4915,2.4936,2.4935,2.4915,2.4904,2.4919,2.4921,2.4915,2.4906,2.4883,2.4882,2.4882,2.4881,0,2.5282,2.5234,2.5256,2.5207,2.5196,2.522,2.5178,2.5189,2.5155,2.5166,2.5165,2.5111,2.5109,2.506,2.5049,2.5023,2.5059,2.5038,2.5067,2.5059,2.5101,2.5097,2.5253,2.5269,2.5114,2.5116,2.5117,0,2.536,2.5381,2.5334,2.5334,2.5317,2.5319,2.5314,2.5256,2.5253,2.5223,2.5238,2.5231,2.5221,2.5222,2.5182,2.5172,2.5148,2.5204,2.5147,2.5159,2.5145,2.5143,2.5143,2.5215,2.5217,2.5219,2.522,0,2.5504,2.5478,2.5473,2.5458,2.5453,2.544,2.5422,2.5426,2.5362,2.5362,2.5358,2.5351,2.5338,2.5331,2.5313,2.5292,2.5245,2.5238,2.5247,2.5261,2.5275,2.5264,2.5097,2.5235,2.5233,2.5232,2.5231,2.5231,2.5614,2.5627,2.5595,2.559,2.557,2.5554,2.5561,2.5527,2.5523,2.5506,2.5473,2.5474,2.5445,2.5416,2.5399,2.5398,2.537,2.5383,2.5386,2.5389,2.5396,2.5277,2.5395,2.5395,2.5394,2.5394,2.5394,0,2.5751,2.5726,2.5722,2.5698,2.5694,2.5649,2.5626,2.5625,2.5627,2.5603,2.5595,2.5589,2.5581,2.554,2.5527,2.5534,2.5512,2.5533,2.553,2.5525,2.5424,2.5416,2.555,2.555,2.555,2.555,2.555,2.555,2.5821,2.584,2.581,2.5817,2.5792,2.5792,2.5782,2.5767,2.5747,2.5743,2.5735,2.5708,2.5676,2.566,2.565,2.5638,2.5635,2.5662,2.5643,2.5548,2.5533,2.5518,2.5511,2.5663,2.5663,2.5744,2.5745,2.5745]},{"header":{"parameterUnit":"m.s-1","parameterCategory":1,"la1":30.2991,"la2":30.254,"lo1":-89.0895,"lo2":-89.0444,"dy":0.0017,"dx":0.0017,"nx":28,"ny":28,"refTime":"2023-07-19T03:00:00:Z","depth":0,"parameterNumber":3,"parameterNumberName":"V-component_of_WINDS"},"data":[0,0,0,0,0,0,0,0,0,0,0,0,0,0,0,0,0,0,0,0,0,0,0,0,0,0,0,0,0,0,0,0,0,0,0,0,0,0,0,0,0,0,0,0,0,0,0,0,0,0,0,0,0,0,0,0,0,0,3.7082,3.7084,0,3.723,3.7232,3.7234,3.7251,3.7249,3.7248,3.7246,3.7391,3.7396,3.7401,0,0,0,0,0,0,0,0,0,0,0,0,0,3.6806,3.6811,3.7082,3.7084,3.7086,3.723,3.7232,3.7234,3.7251,3.7249,3.7247,3.7246,3.7389,3.7395,3.7401,0,0,0,0,0,0,0,0,0,0,0,0,0,3.6937,3.6813,3.7082,3.7112,3.7116,3.723,3.7232,3.7235,3.7251,3.7249,3.7247,3.7245,3.7387,3.7395,3.7402,3.7494,0,0,3.7426,3.743,0,0,0,0,0,0,0,0,3.693,3.6947,3.7106,3.711,3.7115,3.722,3.7188,3.7321,3.7252,3.72,3.7246,3.7244,3.7335,3.7347,3.7379,3.7501,3.7507,3.7427,3.7432,3.7435,3.7437,0,0,0,0,0,0,0,3.6921,3.6941,3.714,3.7108,3.7114,3.7115,3.7132,3.7213,3.7278,3.7204,3.7206,3.7223,3.7337,3.7372,3.7383,3.7509,3.7427,3.7434,3.7438,3.7441,3.771,3.7713,0,0,0,0,0,0,3.6907,3.6933,3.7136,3.7145,3.7015,3.7122,3.714,3.7188,3.7277,3.7288,3.7225,3.7224,3.736,3.7374,3.7388,3.75,3.7435,3.7442,3.7447,3.7708,3.7711,3.7713,0,0,0,0,0,0,3.6901,3.6925,3.713,3.704,3.7066,3.7129,3.7183,3.7192,3.7227,3.7293,3.7304,3.7249,3.7359,3.7377,3.7468,3.7505,3.7446,3.7453,3.7705,3.7709,3.7712,3.7724,0,0,0,0,0,0,3.6893,3.6923,3.696,3.7041,3.7071,3.7209,3.7185,3.7197,3.7241,3.7241,3.7318,3.7329,3.7358,3.7456,3.7475,3.7515,3.7459,3.7702,3.7707,3.7711,3.7721,3.7728,3.7734,0,0,0,0,0,3.6883,3.6957,3.6962,3.6986,3.7119,3.7211,3.7228,3.7263,3.7244,3.7281,3.7323,3.7326,3.7498,3.7465,3.7487,3.7529,3.77,3.7705,3.7711,3.7718,3.7727,3.7734,0,0,0,0,0,0,3.6877,3.6968,3.6975,3.7077,3.7136,3.7214,3.7261,3.7271,3.7335,3.7332,3.737,3.7387,3.7475,3.7511,3.7473,3.7621,3.7597,3.7607,3.7595,3.7603,3.761,3.7599,3.7465,0,0,0,0,0,3.6887,3.6957,3.7032,3.7114,3.7144,3.7198,3.7239,3.7261,3.7323,3.7348,3.7396,3.7455,3.7521,3.7565,3.763,3.7727,3.7742,3.7766,3.7773,3.7778,3.7786,3.7837,3.7848,3.7732,3.7732,3.7732,0,0,3.6909,3.6968,3.7009,3.7115,3.7163,3.7232,3.7219,3.7292,3.7343,3.7358,3.7447,3.7484,3.7551,3.7645,3.7688,3.7678,3.7822,3.7785,3.7789,3.7794,3.7844,3.7855,3.7865,3.7736,3.7735,3.7734,0,0,3.6985,3.7037,3.7111,3.716,3.7235,3.727,3.7288,3.7365,3.7391,3.7481,3.7493,3.7552,3.7668,3.7715,3.7753,3.7846,3.785,3.7866,3.79,3.795,3.7959,3.7967,3.7998,3.8009,3.7874,3.7874,3.7874,0,3.7002,3.7109,3.7147,3.7221,3.7265,3.7285,3.7358,3.7403,3.7494,3.7524,3.7511,3.7655,3.7702,3.7806,3.7828,3.786,3.7879,3.7857,3.7955,3.7964,3.7972,3.8002,3.8014,3.7875,3.7875,3.7875,3.7875,0,3.7125,3.7199,3.7249,3.7339,3.7389,3.7462,3.7509,3.7555,3.7572,3.7608,3.7697,3.7755,3.7831,3.7857,3.7874,3.7963,3.7954,3.7948,3.7923,3.7984,3.8012,3.8024,3.7877,3.7876,3.7876,3.7876,0,0,3.72,3.731,3.7328,3.7368,3.7452,3.7508,3.7581,3.7658,3.7696,3.7758,3.7818,3.7915,3.791,3.7954,3.7975,3.802,3.8087,3.8008,3.801,3.8019,3.8186,3.8189,3.8202,3.8091,3.8093,3.8095,3.818,0,3.7283,3.7416,3.7452,3.7563,3.763,3.7649,3.7712,3.7769,3.7804,3.7863,3.7901,3.7968,3.7958,3.7984,3.8029,3.8069,3.812,3.8064,3.8144,3.8147,3.8126,3.8217,3.8221,3.8298,3.8191,3.8193,3.8195,0,3.7398,3.7465,3.7583,3.7658,3.7687,3.7743,3.7816,3.7874,3.7938,3.796,3.8009,3.8027,3.81,3.8073,3.8173,3.8134,3.8169,3.8194,3.8197,3.8205,3.8173,3.8225,3.8323,3.8334,3.8213,3.8211,3.821,0,3.7438,3.7557,3.7643,3.7678,3.7767,3.7805,3.7844,3.7906,3.7949,3.8012,3.804,3.811,3.8148,3.82,3.8235,3.8212,3.8332,3.8308,3.8349,3.8348,3.8372,3.837,3.8476,3.8398,3.8398,3.8397,3.8397,0,3.7527,3.7598,3.7663,3.7715,3.7795,3.7835,3.7911,3.795,3.8005,3.8063,3.8083,3.8137,3.8181,3.824,3.8268,3.8345,3.8362,3.838,3.8386,3.8378,3.8375,3.84,3.8395,3.8401,3.84,3.8399,3.8399,0,3.7584,3.7631,3.7726,3.7803,3.7824,3.7879,3.7943,3.7994,3.803,3.8103,3.8122,3.8178,3.8248,3.8289,3.8377,3.8395,3.8481,3.8485,3.846,3.8462,3.8501,3.8496,3.8625,3.8643,3.8555,3.8556,3.8556,0,3.7637,3.7692,3.7776,3.7818,3.7858,3.7924,3.7969,3.801,3.8056,3.8132,3.8173,3.8245,3.8305,3.8416,3.8462,3.8529,3.8534,3.8575,3.8544,3.8533,3.8532,3.8528,3.8533,3.8579,3.858,3.8581,3.8581,0,3.7725,3.7745,3.781,3.7884,3.7938,3.7997,3.8055,3.8088,3.8138,3.8187,3.8261,3.8308,3.8398,3.8469,3.854,3.8576,3.8586,3.8591,3.8604,3.8594,3.8577,3.8585,3.8472,3.8587,3.8586,3.8586,3.8586,3.8585,3.778,3.783,3.7896,3.7968,3.8017,3.8071,3.8122,3.8165,3.8228,3.8306,3.8326,3.8403,3.8463,3.856,3.8598,3.8657,3.8649,3.8669,3.8673,3.8677,3.8677,3.8569,3.867,3.867,3.867,3.867,3.867,0,3.7867,3.7911,3.7977,3.8059,3.8115,3.8123,3.8187,3.8233,3.8301,3.8358,3.8417,3.85,3.8568,3.862,3.869,3.8726,3.8733,3.8743,3.874,3.8748,3.8681,3.8662,3.8737,3.8737,3.8737,3.8737,3.8737,3.8737,3.7919,3.8003,3.8031,3.8138,3.8181,3.8258,3.8294,3.8343,3.8389,3.8482,3.854,3.8574,3.8629,3.8702,3.8764,3.8777,3.8801,3.881,3.8824,3.876,3.8752,3.8745,3.8728,3.8816,3.8816,3.8886,3.8886,3.8887]}]]